GEFSSGP_con_prob3kmehi_216.txt.gz
EHI
0 0 0 0 0 0 0 0 0 0 0 0 0 0 0 0 0 0 0 1 7 18 27 35 38 40 46 54 59 60 58 54 52 51 48 43 40 37 32 25 18 14 12 9 6 4 3 2 1
0 0 0 0 0 0 0 0 0 0 0 0 0 0 0 1 1 1 0 3 10 19 27 35 41 42 45 52 57 58 56 52 50 49 46 42 40 36 31 24 16 13 12 10 6 3 2 2 2
0 0 0 0 0 0 0 0 0 0 0 0 1 1 1 2 4 3 3 7 14 21 28 35 43 46 46 49 52 53 51 48 46 45 43 40 37 34 31 25 17 13 10 8 5 2 1 1 1
0 0 0 0 0 0 0 0 1 1 1 1 3 3 3 5 7 8 9 12 17 22 27 36 46 49 47 45 44 45 44 42 40 40 40 38 34 33 31 26 20 14 8 5 4 3 2 1 0
0 0 0 0 0 0 0 0 1 2 1 3 5 6 6 8 11 13 15 17 19 22 27 38 48 50 46 41 37 36 36 34 34 35 36 35 32 29 26 23 19 13 7 3 4 4 3 1 0
0 0 0 0 0 0 0 0 1 1 1 3 6 7 7 9 13 16 19 21 22 24 28 37 46 49 46 40 33 31 31 29 30 32 32 30 26 21 18 15 13 10 6 4 3 4 3 1 1
0 0 0 0 0 0 0 0 1 1 1 2 5 6 6 9 16 21 23 23 24 27 31 37 40 43 42 37 31 29 28 27 28 29 27 24 18 13 11 9 8 7 4 3 3 3 3 3 2
0 0 0 0 0 0 0 0 1 2 2 4 6 5 6 13 25 31 30 27 25 28 34 38 38 36 36 33 30 28 25 24 24 24 21 17 12 9 7 6 6 5 3 2 1 2 2 2 2
0 0 0 0 0 0 0 0 1 4 6 7 8 8 12 25 38 42 38 32 27 27 31 36 36 34 34 31 29 27 24 22 20 17 14 12 9 6 5 4 4 4 3 2 1 1 1 1 1
0 0 0 0 0 0 0 0 1 5 8 10 12 15 23 36 45 44 39 32 27 24 27 31 33 34 33 31 28 26 24 21 18 13 10 8 6 4 3 3 3 4 5 3 2 1 1 0 0
0 0 0 0 0 0 0 0 1 4 6 9 15 23 31 39 42 39 35 30 25 22 22 26 29 30 29 27 26 26 25 21 17 12 9 7 4 1 1 2 3 4 5 3 2 1 0 0 1
0 0 0 0 0 0 0 0 1 2 3 7 16 26 34 37 36 33 31 28 26 23 21 22 24 24 22 21 23 24 25 23 18 12 10 8 4 1 0 1 2 3 3 2 1 1 1 1 2
0 0 0 0 0 0 0 0 1 2 4 9 18 27 32 33 31 29 27 25 25 25 23 22 22 20 17 16 17 20 21 21 17 12 9 8 4 1 0 0 1 1 1 1 0 1 2 2 2
0 0 0 0 0 0 0 0 1 3 8 14 20 26 28 26 24 23 21 21 23 25 25 23 21 18 15 13 13 14 16 17 14 10 8 7 5 2 0 1 2 2 1 1 1 1 1 1 1
0 0 0 0 0 0 0 0 1 4 11 16 20 22 21 18 18 18 17 17 19 21 23 23 20 16 14 13 11 11 13 13 11 8 5 6 6 3 1 1 2 3 3 2 2 2 1 1 0
0 0 0 0 0 0 0 0 1 6 13 16 16 18 17 14 13 13 13 13 15 17 20 21 19 17 15 12 9 8 8 9 7 5 3 4 4 3 1 0 1 2 3 3 3 3 3 2 1
0 0 0 0 0 0 0 1 2 7 12 12 11 14 16 14 11 9 9 10 11 13 16 19 19 16 14 11 8 5 3 4 3 2 2 2 1 1 1 1 0 1 1 2 3 3 3 3 3
0 0 0 0 0 1 1 1 2 5 8 8 8 11 14 14 10 7 7 8 8 8 12 16 16 13 11 9 7 3 2 1 1 1 1 1 0 1 1 1 1 0 1 2 3 4 3 3 3
0 0 0 0 0 1 2 2 2 4 5 5 6 8 9 10 7 5 6 7 6 5 8 12 13 11 9 9 9 7 5 4 3 3 3 3 3 2 2 2 2 2 3 4 4 5 4 3 3
0 0 0 0 0 1 2 2 2 3 4 5 6 6 6 6 6 5 5 6 6 7 8 10 11 11 10 12 13 12 9 7 6 7 7 6 6 5 3 3 5 6 6 5 6 6 5 3 1
0 0 0 0 0 0 1 1 1 2 4 5 6 6 6 7 7 7 7 7 7 9 10 10 10 10 11 13 14 13 10 8 8 8 7 6 5 4 4 5 7 8 7 6 5 5 3 1 0
0 0 0 0 0 0 0 0 0 1 3 5 5 7 7 9 10 10 8 7 7 8 10 11 10 9 10 11 12 12 9 8 7 7 6 4 3 2 4 7 8 8 7 5 2 2 2 1 0
0 0 0 0 0 0 0 0 0 1 2 3 5 7 8 9 9 9 8 7 8 8 9 10 10 9 8 8 8 9 9 7 6 5 5 4 3 3 4 6 7 7 6 4 1 0 0 0 0
0 0 0 0 0 0 0 0 0 0 1 2 4 6 7 8 8 8 7 7 8 8 9 10 10 9 7 6 6 7 8 7 5 4 4 4 4 3 4 6 6 6 6 4 2 1 1 0 0
0 0 0 0 0 0 0 0 0 0 0 1 3 4 5 6 6 6 6 6 6 6 7 8 8 7 6 6 6 6 7 7 6 4 4 4 3 3 4 6 6 6 6 4 3 3 2 1 0
0 0 0 0 0 0 0 0 0 0 0 1 2 3 3 3 3 4 5 5 4 3 4 5 5 5 6 6 6 6 6 6 6 6 5 4 3 4 5 6 6 6 5 4 3 3 3 2 1
0 0 0 0 0 0 0 0 0 0 0 0 1 3 2 1 1 3 4 4 3 2 2 2 2 3 5 6 6 6 7 7 6 5 4 3 3 3 4 5 6 5 4 3 3 3 3 3 3
0 0 0 0 0 0 0 0 0 0 0 0 1 2 2 1 1 2 3 3 2 1 2 2 3 4 5 5 5 5 7 7 6 4 3 3 3 3 4 4 4 4 3 3 3 3 3 3 3
0 0 0 0 0 0 0 0 0 0 0 0 0 1 1 1 1 2 3 2 1 0 1 2 3 4 5 5 4 4 4 4 3 3 3 3 3 3 4 4 4 3 3 3 3 3 3 3 3
0 0 0 0 0 0 0 0 0 0 0 0 0 1 2 2 1 2 3 1 0 0 0 1 3 4 5 5 4 2 2 1 2 3 3 3 3 3 4 4 4 3 3 3 3 3 3 3 3

GEFSSGP_con_prob3kmehi_222.txt.gz
EHI
0 0 0 0 0 0 0 0 0 0 0 0 0 0 0 1 2 2 1 2 6 19 33 40 40 39 39 39 40 43 43 39 38 41 42 39 33 27 24 22 19 16 13 11 8 4 3 4 4
0 0 0 0 0 0 0 0 0 0 0 0 0 0 1 2 3 3 3 4 10 22 35 40 40 40 40 41 41 42 42 40 38 40 40 36 31 26 23 19 16 14 13 11 8 4 3 3 3
0 0 0 0 0 0 0 0 0 0 0 0 0 0 1 2 4 5 5 7 14 24 34 40 41 41 41 41 41 41 41 41 41 41 40 36 30 26 21 17 14 14 14 11 7 4 2 3 2
0 0 0 0 0 0 0 0 0 0 0 0 0 1 2 3 6 7 7 9 15 23 31 39 42 41 40 40 40 40 39 41 43 43 41 36 29 24 19 15 13 13 14 11 6 4 5 5 5
0 0 0 0 0 0 0 0 0 0 0 0 0 1 3 6 10 11 10 11 16 22 29 38 42 40 39 40 40 39 38 40 43 43 40 34 27 22 18 14 11 11 11 10 7 6 7 7 6
0 0 0 0 0 0 0 0 0 0 1 1 1 2 4 9 14 16 15 14 16 21 27 34 37 35 35 38 39 40 40 41 43 42 38 32 27 23 18 14 10 8 7 7 7 7 6 6 5
0 0 0 0 0 0 0 1 1 1 1 1 1 2 6 11 16 19 19 17 18 21 25 29 31 30 30 33 36 38 40 41 43 40 34 30 27 22 15 11 8 6 4 4 5 5 5 4 3
0 0 0 0 0 0 0 1 2 2 1 2 2 5 10 14 19 23 24 23 22 23 24 25 26 25 24 26 30 32 33 36 37 33 26 23 22 17 11 8 7 5 3 2 3 4 4 4 3
0 0 0 0 0 0 0 1 2 2 3 3 5 8 13 20 25 30 33 32 30 27 24 23 23 21 19 20 25 26 27 29 29 25 20 17 16 13 8 6 6 5 3 3 3 4 4 3 2
0 0 0 0 0 0 0 1 2 3 4 4 6 10 16 23 30 36 39 38 35 31 26 22 22 21 19 20 23 24 25 25 22 20 18 16 15 12 7 5 6 6 4 3 3 3 2 1 1
0 0 0 0 0 0 0 1 3 4 4 3 5 11 17 23 28 33 36 36 33 30 27 24 23 24 24 25 25 25 25 24 21 18 18 18 18 14 9 8 7 6 5 4 4 3 2 0 0
0 0 0 0 0 0 1 2 3 3 3 2 5 12 18 22 25 28 31 32 29 27 25 24 24 26 28 29 28 27 26 24 21 19 19 20 19 16 13 11 9 7 6 5 5 4 2 1 1
0 0 0 0 0 0 1 1 2 2 2 2 5 11 15 18 21 24 29 31 28 25 24 24 25 27 29 29 27 25 25 23 20 19 18 18 17 15 13 12 10 8 6 5 5 5 3 3 3
0 0 0 0 0 0 1 1 1 1 2 3 6 9 13 15 17 22 28 30 27 24 23 24 25 27 29 27 24 23 23 22 19 17 15 12 12 12 11 10 9 8 7 7 6 6 6 6 6
0 0 0 0 0 0 0 1 1 1 2 3 5 8 12 13 14 17 21 24 23 23 26 25 24 25 26 26 23 22 21 20 17 14 10 8 8 10 10 9 7 7 7 8 8 8 8 9 9
0 0 0 0 0 0 0 1 2 2 3 5 6 8 11 12 12 13 14 17 20 24 29 28 24 22 24 25 25 22 19 16 14 11 8 7 8 10 11 8 6 6 7 7 7 8 9 10 10
0 0 0 0 0 0 0 0 1 2 3 6 7 8 8 9 10 10 10 13 17 23 29 29 24 22 22 24 24 22 18 14 13 12 10 9 9 10 10 8 6 7 8 7 7 9 10 10 11
0 0 0 0 0 0 0 0 0 1 2 5 8 10 10 10 10 8 7 10 16 23 27 27 24 24 24 23 22 21 17 13 12 12 11 10 9 10 11 10 9 10 11 11 10 11 12 11 11
0 0 0 0 0 0 0 1 0 0 1 5 9 12 14 13 11 9 7 9 16 24 28 27 24 24 24 22 22 20 16 12 9 8 8 9 10 12 14 13 12 13 14 14 13 14 14 12 11
0 0 0 0 0 0 0 0 0 0 2 5 9 12 13 12 11 10 8 9 15 24 27 25 23 22 20 20 20 19 15 11 7 4 6 10 13 14 14 14 14 13 13 15 16 16 15 13 12
0 0 0 0 0 0 0 0 0 1 1 4 6 8 9 10 11 11 11 10 16 24 26 23 22 21 19 18 16 16 16 12 8 6 7 11 14 14 13 12 12 10 11 14 16 16 15 14 13
0 0 0 0 0 0 0 0 1 1 1 1 3 5 7 10 12 12 12 14 19 25 26 24 23 21 19 16 14 14 15 13 11 9 10 11 11 11 11 10 8 8 9 11 13 14 14 13 13
0 0 0 0 0 0 0 0 1 1 1 1 2 5 7 9 12 13 12 15 19 23 25 24 22 20 17 14 12 11 12 12 13 12 12 11 10 9 8 7 6 7 9 9 10 11 12 12 12
0 0 0 0 0 0 0 0 0 1 1 2 4 6 7 8 11 12 13 14 17 20 20 19 17 14 13 11 10 9 8 10 13 15 14 13 11 8 6 5 6 7 8 8 8 9 9 9 10
0 0 0 0 0 0 0 0 0 0 2 3 4 7 7 8 9 11 13 15 16 17 16 15 13 11 10 12 12 10 8 9 13 15 15 15 13 10 7 7 8 8 7 7 7 7 7 7 7
0 0 0 0 0 0 0 0 0 0 1 3 4 6 7 7 8 10 13 14 15 15 14 13 13 12 12 13 14 13 10 9 11 13 14 14 12 10 9 10 9 7 5 5 5 5 5 6 6
0 0 0 0 0 0 0 0 0 0 1 3 3 4 5 6 8 9 11 14 15 14 12 10 11 13 13 12 12 12 10 10 10 11 12 12 11 9 9 9 8 6 4 4 4 4 5 6 6
0 0 0 0 0 0 0 0 0 0 1 2 3 3 3 5 8 10 11 14 15 12 10 8 9 12 12 9 8 7 8 9 9 11 12 11 10 9 7 6 5 4 4 5 4 5 6 6 6
0 0 0 0 0 0 0 0 0 0 1 1 1 3 3 4 6 9 11 12 11 10 9 8 8 10 10 8 6 5 6 8 9 10 10 10 9 7 6 5 4 4 4 4 5 5 6 6 6
0 0 0 0 0 0 0 0 0 0 0 0 1 2 3 4 5 7 9 10 9 8 9 8 7 8 9 9 7 6 6 7 8 9 9 8 7 5 4 5 5 4 3 4 4 5 6 6 6

GEFSSGP_con_prob3kmehi_228.txt.gz
EHI
0 0 0 0 0 0 0 0 0 0 0 0 0 0 1 1 1 1 3 12 26 32 35 40 41 37 33 32 30 26 20 16 15 14 13 11 10 8 8 8 5 2 1 2 3 4 3 3 3
0 0 0 0 0 0 0 0 0 0 0 0 0 0 0 2 2 2 6 16 28 34 36 39 40 37 34 33 31 28 22 17 14 13 11 10 10 10 9 8 6 4 3 4 4 4 3 3 3
0 0 0 0 0 0 0 0 0 0 0 0 0 1 1 3 5 6 10 20 32 41 41 41 41 39 37 35 33 29 24 18 13 11 10 10 12 12 11 9 6 5 5 5 5 4 4 4 4
0 0 0 0 0 0 0 1 1 1 0 1 2 4 5 6 7 10 14 22 34 43 45 44 44 43 39 37 33 29 26 20 14 12 13 14 15 15 13 9 7 6 5 5 5 5 6 5 4
0 0 0 0 0 0 0 1 2 1 1 2 5 8 10 9 9 11 14 20 30 42 46 47 47 45 41 37 33 30 28 25 21 20 21 22 21 18 15 11 9 7 5 5 6 6 7 5 3
0 0 0 0 0 0 0 1 1 2 3 5 8 11 14 14 10 11 13 17 27 40 46 47 46 44 41 36 33 31 30 29 27 26 26 26 24 22 18 15 14 10 8 6 6 6 5 4 2
0 0 0 0 0 0 0 0 2 5 7 8 10 12 16 16 13 11 14 19 26 36 42 42 41 39 37 35 33 32 29 27 26 25 24 24 22 21 19 17 15 12 7 5 4 4 3 2 1
0 0 0 0 0 0 0 1 5 8 9 10 13 16 18 18 16 16 19 21 25 32 36 37 35 33 32 31 32 31 27 25 23 22 22 20 18 16 15 14 13 10 6 3 2 2 2 2 1
0 0 0 0 0 0 1 3 5 8 8 10 14 19 22 21 21 23 25 25 27 31 33 33 33 30 26 25 29 30 26 24 24 22 21 20 18 15 12 11 11 10 7 4 2 3 4 2 1
0 0 0 0 0 1 3 4 4 5 6 7 10 16 20 23 25 28 30 30 32 33 33 33 33 29 22 24 30 30 25 24 25 24 23 21 19 17 14 13 13 11 9 6 5 6 5 2 0
0 0 0 0 1 2 3 2 2 3 3 5 8 12 17 22 25 28 31 33 36 35 32 33 34 31 27 29 32 29 25 25 26 27 26 23 21 19 18 17 16 14 11 8 6 6 4 1 0
0 0 0 1 2 3 2 1 2 2 3 4 7 10 14 19 24 25 28 33 35 33 31 34 38 38 38 39 36 30 27 27 27 30 31 28 25 21 20 20 18 15 11 9 7 5 3 2 1
0 0 0 1 2 3 2 2 2 3 3 4 5 7 11 18 23 24 27 33 34 32 32 37 45 49 49 45 40 33 30 27 28 34 36 32 28 24 22 23 20 14 12 11 11 8 5 3 2
0 0 0 0 1 2 2 3 2 2 2 3 3 5 11 17 21 23 28 34 35 33 34 40 48 55 55 48 41 36 32 29 30 37 40 35 30 27 25 24 20 16 14 14 15 12 9 6 4
0 0 0 0 1 1 2 2 2 1 1 3 4 7 13 18 22 24 30 37 38 36 36 39 46 53 55 49 43 38 33 30 34 39 41 36 29 25 24 23 21 19 17 16 17 15 13 11 8
0 0 0 0 0 0 1 2 2 1 2 3 6 10 14 19 23 27 33 40 42 41 41 43 47 52 54 52 48 41 34 32 34 37 38 34 26 21 20 21 20 19 18 17 15 14 14 13 11
0 0 0 0 0 0 0 2 3 3 3 5 8 12 15 17 21 27 36 42 43 44 47 48 51 54 55 54 51 45 39 35 33 34 33 28 22 18 19 20 19 19 19 16 13 13 14 13 11
0 0 0 0 0 0 0 1 3 4 5 6 10 13 15 15 18 26 36 40 42 43 46 48 50 54 55 55 52 47 42 35 31 30 29 23 18 16 16 17 18 18 17 15 14 15 16 14 11
0 0 0 0 0 0 0 1 3 6 6 9 12 14 14 15 20 29 34 35 37 40 42 44 46 49 52 53 51 48 42 35 29 25 23 21 18 17 15 15 17 17 16 15 15 17 17 15 13
0 0 0 0 0 0 0 1 4 6 7 11 15 16 16 18 23 30 32 31 33 36 39 40 41 45 47 48 47 45 39 32 26 21 21 21 19 18 15 15 15 15 14 14 15 16 16 15 14
0 0 0 0 0 0 1 2 5 6 6 9 13 15 16 17 22 28 29 29 31 34 37 38 39 40 41 44 43 38 33 28 22 20 22 22 20 18 16 15 14 14 13 13 15 16 16 16 16
0 0 0 0 0 0 1 3 5 6 5 7 9 10 11 13 16 21 23 25 29 33 35 36 36 35 36 40 39 32 25 22 20 20 22 23 20 17 15 15 15 14 13 14 16 17 17 17 16
0 0 0 0 0 0 1 1 3 5 5 5 6 7 9 11 14 16 20 23 26 30 31 32 33 33 33 35 33 25 19 17 19 20 22 22 20 16 13 14 16 17 17 17 18 18 18 17 16
0 0 0 0 0 0 0 0 2 4 4 4 5 9 11 13 14 16 20 23 23 25 27 29 32 33 32 31 26 20 16 16 17 18 19 20 18 14 13 15 18 20 20 20 20 19 17 16 16
0 0 0 0 0 0 0 0 0 1 2 2 5 9 11 11 12 15 19 22 22 22 24 27 30 32 31 27 22 17 15 15 15 15 15 16 14 13 14 17 21 22 21 21 20 18 15 14 14
0 0 0 0 0 0 0 0 0 0 0 2 4 6 8 9 10 13 17 19 19 20 22 24 26 28 27 25 21 17 14 13 12 13 13 13 14 14 16 19 21 22 20 18 18 16 13 11 11
0 0 0 0 0 0 0 0 0 0 1 2 3 4 5 7 9 12 14 15 18 20 21 20 21 22 22 21 19 16 13 12 11 11 12 13 14 15 16 18 19 19 17 15 15 14 10 9 8
0 0 0 0 0 0 0 0 1 1 2 2 2 2 4 6 8 10 12 13 16 19 19 16 15 17 18 18 16 14 12 11 12 12 11 12 14 14 15 15 15 13 12 12 12 11 9 8 8
0 0 0 0 0 0 0 0 1 2 2 1 1 1 2 3 6 10 12 12 12 14 15 13 12 14 16 17 15 13 12 13 15 14 12 12 13 13 14 13 12 10 10 10 11 10 8 8 7
0 0 0 0 0 0 0 1 2 2 1 0 1 1 1 1 4 9 12 11 10 11 12 12 11 13 16 17 16 14 13 14 17 16 14 13 13 14 14 13 11 9 9 8 9 9 8 6 5

GEFSSGP_con_prob3kmehi_234.txt.gz
EHI
0 0 0 0 0 0 0 0 1 1 1 2 5 6 5 4 3 3 3 8 14 20 26 36 48 55 55 51 46 39 35 35 35 34 31 28 26 25 24 23 22 18 12 7 5 4 4 4 3
0 0 0 0 0 0 0 1 2 2 1 2 5 6 6 6 6 5 7 13 18 21 25 35 47 55 54 51 47 43 38 35 33 31 28 25 22 21 21 22 21 17 10 6 4 3 3 3 2
0 0 0 0 0 0 0 1 2 3 2 2 4 6 8 9 8 8 13 19 22 22 24 34 49 56 53 50 48 46 41 35 30 27 24 20 17 16 17 17 16 13 8 5 3 3 3 2 1
0 0 0 0 0 0 0 1 3 3 3 2 4 7 11 11 12 14 20 24 24 22 23 34 51 57 53 48 47 47 43 36 30 25 20 17 16 14 12 11 10 8 7 5 4 3 2 2 1
0 0 0 0 0 1 1 2 2 2 2 3 5 8 11 15 21 26 28 26 24 22 23 34 49 53 47 42 41 43 41 36 31 25 21 19 17 15 11 8 7 6 6 5 3 3 3 2 2
0 0 0 0 1 2 2 1 1 2 2 4 7 9 10 17 27 33 32 27 24 23 26 35 42 42 38 36 36 36 36 34 31 26 22 19 18 15 13 10 7 6 6 4 2 2 3 2 1
0 0 0 0 1 1 1 0 0 1 2 4 7 8 10 16 25 33 33 28 24 25 30 34 36 34 32 32 33 32 31 32 30 25 19 17 15 13 13 11 8 6 4 2 1 1 2 2 1
0 0 0 0 0 0 0 0 0 1 3 5 7 8 10 16 24 31 31 28 24 24 28 31 30 28 28 29 30 31 30 30 30 24 18 14 11 8 9 9 8 4 1 1 1 2 3 3 1
0 0 0 0 0 0 0 0 1 3 5 8 9 9 11 16 23 28 29 26 23 21 22 24 23 22 24 25 25 28 29 30 29 25 19 15 9 5 5 7 6 3 0 0 1 3 4 3 1
0 0 0 0 0 0 0 0 2 3 5 8 11 12 13 17 21 24 27 26 21 17 16 17 17 17 19 21 22 25 28 28 27 23 18 14 10 6 6 7 7 4 1 0 1 4 6 4 2
0 0 0 0 0 0 0 0 1 2 2 5 10 13 15 17 18 21 25 24 19 15 13 13 14 14 14 17 21 24 26 24 23 20 16 13 10 8 7 7 7 4 1 0 2 4 6 4 2
0 0 0 0 0 0 0 0 0 1 2 6 12 16 19 20 19 21 23 23 19 15 12 11 11 10 11 13 16 20 21 20 19 18 15 12 10 8 6 6 4 2 0 1 3 5 6 4 2
0 0 0 0 0 0 0 1 1 2 7 13 18 21 23 23 23 23 23 23 21 17 13 11 10 9 9 9 11 14 18 19 17 16 14 11 10 7 4 3 1 0 0 2 4 5 5 4 2
0 0 0 0 0 0 0 1 3 5 10 17 20 22 23 24 23 22 23 23 22 18 14 13 12 11 10 8 9 13 17 20 18 15 13 11 9 6 3 1 0 0 0 1 2 3 3 3 2
0 0 0 0 0 0 0 1 3 6 11 15 17 19 21 21 21 21 23 24 22 17 15 15 15 16 14 12 13 16 19 21 18 15 13 11 8 5 3 1 1 1 1 1 1 1 1 2 1
0 0 0 0 0 0 0 1 3 5 9 12 15 17 17 16 15 18 22 24 22 19 17 15 16 17 17 17 17 19 20 19 16 14 13 11 8 5 4 3 3 3 2 2 2 2 1 1 0
0 0 0 0 0 1 1 3 4 5 6 9 12 13 13 11 10 14 19 22 21 19 17 14 14 15 17 19 19 19 18 16 13 13 13 10 7 6 5 5 6 6 4 4 3 3 2 1 0
0 0 0 0 0 1 2 3 3 4 4 6 8 10 10 9 9 11 15 18 18 17 16 14 14 15 17 21 21 18 15 12 11 10 9 8 6 6 6 6 7 6 6 5 4 3 2 1 0
0 0 0 0 0 1 2 2 1 1 2 3 6 8 8 9 10 11 13 16 17 17 17 17 17 17 19 21 22 19 15 12 10 7 6 5 5 4 4 5 5 6 6 5 4 3 2 1 0
0 0 0 0 0 0 1 1 0 1 1 3 6 6 7 9 11 10 11 15 17 18 19 20 20 20 20 20 21 20 17 13 9 6 5 4 3 2 3 4 5 5 5 5 4 3 1 0 0
0 0 0 0 0 0 0 0 1 2 3 4 6 7 8 9 9 9 11 15 18 19 20 20 20 20 19 17 17 18 16 11 7 4 3 2 1 2 3 4 5 5 5 4 3 2 1 0 0
0 0 0 0 0 0 0 0 1 2 3 3 5 7 8 8 7 8 11 14 15 16 18 19 19 19 17 14 12 12 11 8 4 3 2 1 0 1 3 5 6 6 6 5 5 2 1 0 0
0 0 0 0 0 0 0 0 0 1 1 1 3 5 7 7 7 7 9 11 12 12 15 17 17 16 14 12 9 8 8 6 4 2 1 0 0 0 2 4 6 7 7 7 7 4 1 0 0
0 0 0 0 0 0 0 0 0 0 0 0 2 4 6 8 8 7 7 8 9 11 13 15 15 12 9 8 5 5 6 6 3 2 1 0 0 0 1 2 5 7 8 8 8 6 3 1 1
0 0 0 0 0 0 0 0 0 0 0 0 2 4 7 9 8 7 6 7 8 9 10 12 11 7 4 3 2 3 4 4 2 1 0 0 0 0 1 2 4 6 7 7 7 6 5 3 3
0 0 0 0 0 0 0 0 0 0 0 0 1 3 6 8 9 7 5 5 6 7 8 8 6 4 2 1 1 2 3 2 1 0 0 0 0 0 1 1 3 5 6 6 6 5 5 4 4
0 0 0 0 0 0 0 0 0 0 0 0 0 1 3 6 8 6 4 4 4 5 6 5 4 3 2 2 3 3 3 2 1 0 0 0 0 0 0 0 2 4 6 6 6 5 4 4 5
0 0 0 0 0 0 0 0 0 0 0 0 0 0 1 4 6 4 3 2 3 3 3 3 2 1 1 2 3 4 3 1 0 0 0 0 0 0 0 0 0 2 5 6 6 5 4 3 4
0 0 0 0 0 0 0 0 0 0 0 0 1 1 2 3 4 3 1 1 1 1 1 1 0 0 0 1 2 3 1 0 0 0 0 0 0 0 1 1 0 1 4 6 6 4 3 3 3
0 0 0 0 0 0 0 0 0 0 0 1 2 2 2 3 3 2 1 0 0 0 0 0 0 0 0 1 2 2 1 0 0 0 0 0 0 1 2 2 1 1 3 5 6 4 3 3 3

GEFSSGP_con_prob3kmehi_240.txt.gz
EHI
0 0 0 0 0 0 0 0 0 0 1 2 4 4 4 3 2 1 0 4 12 20 24 28 32 37 41 42 44 48 52 53 53 50 46 43 40 38 33 27 24 22 19 14 10 7 6 6 5
0 0 0 0 0 0 0 0 0 0 0 2 4 4 3 3 2 1 1 6 17 25 27 29 33 38 42 42 43 46 50 51 50 47 44 41 38 36 32 28 24 21 19 17 12 9 8 8 8
0 0 0 0 0 0 0 0 0 0 1 2 3 3 3 3 2 2 3 10 23 31 31 31 35 39 41 42 42 44 47 47 46 44 42 39 37 35 32 27 23 19 18 18 16 13 11 10 11
0 0 0 0 0 0 0 0 0 0 1 4 4 4 5 4 3 3 6 15 26 32 33 34 37 39 41 42 41 42 43 44 44 44 42 39 37 34 30 24 20 18 18 18 17 15 13 12 11
0 0 0 0 0 0 0 0 0 0 1 3 4 6 7 6 5 6 11 19 27 33 34 37 40 42 43 42 40 39 39 40 42 42 41 38 35 31 25 21 19 19 19 18 17 14 13 11 9
0 0 0 0 0 0 0 0 0 0 0 1 3 6 7 7 9 13 17 23 31 36 37 37 39 41 42 41 39 37 37 38 40 40 39 36 31 26 21 18 18 18 18 17 15 12 11 10 8
0 0 0 0 0 0 0 0 0 0 0 1 3 5 7 8 13 19 23 27 32 35 34 33 33 33 33 33 35 36 37 37 37 36 34 30 25 20 17 16 15 15 15 14 13 12 11 10 9
0 0 0 0 0 0 0 0 0 0 1 2 4 5 7 10 15 20 23 25 27 28 27 26 26 25 24 25 28 33 35 33 30 26 24 21 19 16 15 14 12 11 10 10 12 11 10 9 8
0 0 0 0 0 0 0 0 0 0 1 2 3 5 8 13 17 20 21 21 21 20 19 20 20 19 18 19 22 27 30 27 21 17 16 15 14 13 12 11 9 8 7 8 9 8 7 6 6
0 0 0 0 0 0 0 0 0 0 0 1 4 8 13 18 19 19 18 17 15 12 11 13 13 12 13 15 18 21 24 22 19 17 16 16 13 10 10 9 6 5 6 6 6 5 4 4 4
0 0 0 0 0 0 0 1 1 2 2 3 8 13 19 21 18 15 13 12 9 8 8 8 8 8 9 13 15 16 17 19 20 20 18 17 14 10 8 7 5 3 4 5 6 5 4 2 2
0 0 0 0 0 0 1 2 4 5 5 7 13 18 21 19 15 11 9 7 7 8 8 7 6 7 8 11 12 11 12 16 19 20 17 16 13 9 6 4 3 2 2 4 6 4 2 2 1
0 0 0 0 1 1 2 3 5 7 8 10 15 20 20 16 13 12 10 7 7 7 6 5 5 7 8 8 8 7 8 12 16 17 16 15 12 8 5 3 2 1 1 2 3 2 1 1 0
0 0 0 0 1 2 3 3 4 7 9 11 13 15 14 11 11 13 13 9 7 6 4 4 4 6 6 5 4 4 5 8 12 14 15 15 13 8 4 3 1 0 0 0 0 0 0 0 0
0 0 0 0 1 1 3 3 3 5 8 9 9 8 7 6 8 11 11 10 8 7 5 4 4 4 4 4 3 3 4 6 9 13 15 16 14 9 4 2 1 0 0 0 0 0 0 0 0
0 0 0 0 0 1 2 3 3 3 6 6 5 5 5 5 7 8 7 8 9 9 7 6 5 4 3 3 3 3 3 4 8 12 15 16 14 8 3 1 1 1 1 0 0 0 0 0 0
0 0 0 0 0 1 3 3 3 3 4 4 4 5 7 7 8 7 6 5 7 9 9 8 7 5 3 3 3 3 3 3 6 11 15 15 11 6 2 0 1 1 1 0 0 0 0 0 0
0 0 0 0 0 1 2 2 2 3 3 3 3 5 6 6 7 7 5 3 4 7 9 9 7 5 3 3 4 4 4 3 4 8 11 10 8 5 3 1 0 0 0 0 0 0 0 0 0
0 0 0 0 0 1 1 1 1 1 2 2 2 3 4 4 4 5 4 2 3 6 9 8 7 5 4 4 4 4 4 4 4 4 5 4 3 3 3 1 0 0 0 0 0 0 1 1 0
0 0 0 0 0 0 0 0 0 0 1 1 1 1 3 3 3 3 3 3 3 7 9 9 8 7 6 4 4 4 4 5 4 3 3 2 1 1 1 1 1 1 1 1 0 0 1 2 1
0 0 0 0 0 0 0 0 0 0 0 0 1 2 3 3 3 4 4 4 4 6 8 8 7 7 6 4 3 3 4 5 4 3 3 3 2 1 0 0 0 1 3 2 1 1 2 2 2
0 0 0 0 0 0 0 0 0 0 0 0 2 4 4 4 3 4 5 5 4 4 5 5 5 5 6 6 5 4 5 5 3 2 2 2 2 1 0 0 0 1 2 3 2 2 2 2 2
0 0 0 0 0 0 0 0 0 0 0 0 1 3 3 4 5 6 5 4 3 3 3 3 3 3 5 6 5 5 4 3 2 1 1 1 1 1 0 0 0 0 2 3 3 1 1 2 2
0 0 0 0 0 0 0 0 0 0 0 0 0 1 2 5 7 7 5 3 3 2 1 2 2 1 2 3 3 3 3 2 1 0 0 0 0 0 0 0 0 0 1 2 2 1 0 1 2
0 0 0 0 0 0 0 0 0 0 0 0 0 0 1 4 7 6 4 3 3 1 1 1 1 0 0 1 1 1 1 2 1 0 0 0 0 0 0 0 0 0 1 1 1 0 0 0 1
0 0 0 0 0 0 0 0 0 0 0 0 1 1 1 3 5 4 2 2 2 1 0 0 0 0 0 0 0 0 0 1 1 0 0 0 0 0 0 0 0 0 0 0 0 0 0 0 0
0 0 0 0 0 0 0 0 0 0 0 1 2 2 2 2 3 2 1 1 2 1 0 0 0 0 0 0 0 0 0 0 0 0 0 0 0 0 0 0 0 0 0 0 0 0 0 0 0
0 0 0 0 0 0 0 0 0 0 0 1 2 2 1 2 2 1 0 1 1 0 0 0 0 0 0 0 0 0 0 0 0 0 0 0 0 0 0 0 0 0 0 0 0 0 0 0 0
0 0 0 0 0 0 0 0 0 0 0 0 1 1 1 2 2 1 0 0 0 0 0 0 0 0 0 0 0 0 0 0 0 0 0 0 0 0 0 0 0 0 0 0 0 0 0 0 0
0 0 0 0 0 0 0 0 0 0 0 0 0 1 2 2 1 0 0 0 0 0 0 0 0 0 0 0 0 0 0 0 0 0 0 0 0 0 0 0 0 0 0 0 0 0 0 0 0

GEFSSGP_con_prob3kmehi_246.txt.gz
EHI
0 0 0 0 0 0 0 0 0 0 0 0 0 1 3 5 4 2 1 2 9 23 34 40 39 33 28 29 33 38 40 41 42 45 49 50 44 39 37 34 30 25 18 14 13 12 10 10 9
0 0 0 0 0 0 0 0 0 0 0 0 1 3 5 6 5 2 1 3 11 24 35 40 40 34 29 30 34 37 40 40 41 43 45 43 39 36 35 32 29 24 17 14 13 11 9 8 8
0 0 0 0 0 0 0 0 0 0 0 1 3 5 5 5 4 3 4 6 12 24 34 40 41 35 30 31 34 37 39 39 37 36 35 34 31 31 31 30 27 22 16 12 12 11 9 8 8
0 0 0 0 0 0 0 0 0 0 0 1 3 5 4 3 3 5 8 9 13 20 28 36 38 33 29 29 32 35 36 35 32 29 29 28 27 27 28 27 24 19 14 10 9 10 11 10 9
0 0 0 0 0 0 0 0 0 0 1 2 3 3 3 4 5 7 10 11 13 16 22 30 34 31 27 28 29 30 31 30 29 28 27 26 25 25 24 23 20 16 12 9 8 10 12 12 11
0 0 0 0 0 0 0 0 0 0 1 2 2 2 4 6 8 10 11 11 12 15 21 27 29 28 27 28 29 28 27 27 28 29 29 27 25 23 20 18 16 13 10 9 8 10 12 12 12
0 0 0 0 0 0 0 0 0 0 0 1 1 2 5 10 13 13 13 13 13 15 19 23 25 25 25 27 29 28 27 28 28 28 28 27 24 19 15 14 12 10 9 8 8 9 9 9 9
0 0 0 0 0 0 0 0 0 0 0 1 1 3 7 13 17 17 17 18 17 16 17 20 22 22 21 23 25 25 25 26 27 26 25 22 16 12 10 10 10 9 8 8 7 6 5 5 5
0 0 0 0 0 0 0 0 0 0 1 2 3 5 9 15 19 21 21 21 21 19 18 19 20 19 17 18 19 19 18 21 22 21 19 14 8 6 6 7 9 9 7 6 5 4 4 4 4
0 0 0 0 0 0 0 0 1 1 2 3 5 7 11 15 18 21 20 19 20 20 18 18 19 19 17 14 13 13 14 17 18 16 14 11 8 7 7 9 11 9 5 3 2 2 3 4 4
0 0 0 0 0 0 0 0 2 3 4 4 5 8 11 13 15 16 16 15 15 15 15 17 17 17 16 14 11 12 15 18 19 18 16 15 14 11 11 13 13 9 4 2 2 3 4 4 4
0 0 0 0 0 0 0 0 2 4 4 4 5 8 12 12 11 11 11 12 11 11 12 14 14 13 15 14 12 13 17 19 20 21 21 19 18 15 13 14 13 9 6 4 4 5 6 5 4
0 0 0 0 0 0 0 1 2 3 3 4 5 9 13 13 9 7 7 7 7 7 9 11 12 12 13 13 12 12 15 17 17 19 21 21 19 17 15 16 15 10 6 6 6 7 7 7 5
0 0 0 0 0 0 0 1 2 2 2 3 6 10 13 13 9 6 5 5 4 4 6 9 11 11 12 12 11 10 12 14 14 16 19 20 19 18 18 19 17 12 7 6 6 6 7 6 4
0 0 0 0 0 0 1 2 3 2 2 3 6 9 11 10 8 6 5 4 4 5 7 11 12 11 12 13 11 10 10 11 12 14 16 17 17 17 19 20 17 13 10 9 8 7 7 5 3
0 0 0 0 0 0 1 3 4 3 3 5 6 8 8 7 6 5 5 4 5 8 11 13 14 13 14 15 14 13 11 10 11 13 15 15 15 16 17 17 15 12 11 10 9 8 7 5 4
0 0 0 0 0 0 2 4 4 3 4 5 6 7 7 6 5 5 6 5 5 8 10 12 15 16 15 15 15 14 13 11 10 12 13 13 14 14 14 14 12 10 10 10 9 9 7 6 5
0 0 0 0 0 1 3 4 2 2 3 4 5 6 7 6 6 7 8 6 5 6 8 11 14 17 17 15 14 14 12 11 10 11 11 11 13 14 14 14 12 10 9 9 9 9 8 7 7
0 0 0 1 1 1 3 2 1 2 3 3 4 6 6 7 8 9 9 7 6 7 8 11 14 16 16 14 14 13 12 11 10 10 10 10 12 13 15 15 13 12 9 8 8 9 9 9 9
0 0 0 1 2 2 2 1 1 3 3 3 4 6 7 7 8 9 9 8 9 9 9 10 12 15 16 15 15 14 13 11 10 9 9 10 11 12 13 13 13 12 9 6 6 6 8 8 8
0 0 0 1 2 1 1 1 2 4 4 4 5 6 8 8 7 7 7 8 9 9 8 7 9 13 15 15 14 13 11 10 9 8 9 9 9 10 10 10 11 10 7 5 5 6 6 7 7
0 0 0 0 0 0 0 1 3 4 5 5 5 6 7 6 5 5 7 8 9 8 7 6 6 8 11 11 10 9 9 8 6 7 7 8 8 8 8 7 7 7 5 3 4 5 5 6 6
0 0 0 0 0 0 0 1 3 4 5 6 5 4 4 4 4 7 10 11 9 7 6 4 4 5 6 6 6 7 8 7 5 5 6 7 6 6 5 4 5 5 3 2 3 4 5 5 6
0 0 0 0 0 0 0 1 3 4 5 5 3 2 3 4 6 8 11 12 10 7 4 3 3 4 4 3 3 5 7 6 5 6 6 5 5 5 4 2 1 1 1 1 3 3 3 4 5
0 0 0 0 0 0 0 1 3 4 4 3 3 4 5 7 8 8 9 10 10 7 5 3 5 6 5 2 1 2 4 5 5 5 4 3 4 4 4 1 0 1 1 2 3 2 2 3 4
0 0 0 0 0 0 0 1 2 2 2 2 4 5 7 9 10 9 8 9 8 7 6 5 7 7 4 1 0 1 3 4 4 4 3 3 3 4 3 1 1 2 2 2 2 2 2 2 2
0 0 0 0 0 0 0 1 1 1 1 3 4 6 7 9 10 10 9 8 7 6 5 6 7 6 4 2 1 0 2 4 5 4 3 3 3 3 1 1 2 3 3 3 2 2 2 2 1
0 0 0 0 0 0 0 0 0 1 1 2 4 5 6 8 9 10 10 8 6 5 4 4 5 5 4 2 1 0 1 3 4 3 3 3 3 2 1 2 3 3 3 3 3 3 3 3 3
0 0 0 0 0 0 0 0 1 2 2 2 3 4 6 8 9 9 8 6 4 4 3 2 2 3 2 1 0 1 2 3 3 3 3 3 3 2 2 3 3 3 3 3 3 3 3 3 4
0 0 0 0 0 0 0 0 1 2 2 2 3 5 7 8 8 7 6 4 2 2 2 2 2 1 0 0 1 2 3 3 3 3 3 3 3 2 2 3 3 3 3 3 3 3 3 3 3

GEFSSGP_con_prob3kmehi_252.txt.gz
EHI
0 0 0 0 0 0 0 0 0 0 0 1 2 3 3 3 3 3 8 23 38 39 31 34 40 37 32 29 22 16 14 14 13 10 7 4 2 2 3 5 9 10 9 7 5 4 4 5 6
0 0 0 0 0 0 0 0 0 0 0 1 3 5 5 4 4 5 11 24 37 37 31 35 41 39 34 30 24 17 15 14 13 12 10 7 5 4 2 3 6 8 8 7 5 4 3 4 5
0 0 0 0 0 0 0 0 0 0 1 1 4 6 7 6 5 7 13 23 32 34 32 36 42 41 37 34 27 19 16 14 12 11 11 10 8 6 3 2 4 5 6 5 5 4 3 3 4
1 0 0 0 0 0 0 0 0 1 2 2 3 7 8 8 7 8 11 18 26 31 33 36 40 41 38 34 27 20 16 14 12 10 10 10 10 8 6 4 3 4 3 3 4 3 2 3 3
1 0 0 0 0 0 0 0 0 1 2 1 2 5 8 9 9 9 11 15 23 29 32 34 37 38 34 29 23 18 15 14 14 12 11 11 10 9 8 6 4 4 3 2 3 3 3 2 2
1 0 0 0 0 0 0 0 0 1 2 1 2 5 7 9 10 11 13 16 23 29 28 28 31 32 28 23 19 16 16 17 17 15 13 12 10 8 8 6 5 5 4 3 3 3 3 2 1
0 0 0 0 0 0 0 0 0 2 3 3 4 7 10 10 11 14 16 19 24 28 25 22 22 23 22 20 18 17 19 21 20 17 14 11 9 7 7 6 5 5 5 4 3 2 2 1 0
0 0 0 0 0 0 0 0 1 4 5 4 4 8 12 12 11 14 19 21 25 27 23 17 16 19 18 18 20 21 23 25 24 20 16 11 8 6 6 5 5 5 5 3 1 1 1 0 0
0 0 0 0 0 0 1 1 3 6 6 5 4 7 11 12 10 14 19 22 25 26 22 18 18 20 19 19 24 25 24 26 26 23 20 15 9 6 5 7 9 9 7 4 2 1 0 0 0
0 0 0 0 0 1 2 3 5 6 6 5 5 7 9 11 12 14 18 20 22 22 21 20 20 21 20 23 28 26 22 23 25 23 21 18 13 9 7 11 15 14 10 7 4 2 1 0 0
0 0 0 0 0 1 3 4 5 5 5 5 6 8 11 14 16 16 16 17 18 18 19 20 20 20 22 24 26 25 23 24 23 22 19 18 16 13 12 16 19 18 15 12 8 4 1 1 0
0 0 0 0 0 2 3 3 2 3 4 6 8 10 13 16 18 18 17 16 18 19 18 18 20 22 23 23 23 23 24 25 24 22 20 17 17 16 17 19 20 19 19 17 12 7 3 3 3
0 0 0 0 1 2 2 1 1 2 5 7 9 12 14 16 18 18 17 16 18 19 18 20 24 26 24 24 23 23 25 25 24 23 21 19 19 18 21 23 22 20 20 17 14 10 6 6 8
0 0 0 0 1 1 1 1 2 4 5 7 9 12 13 14 15 14 15 16 16 18 20 22 24 25 25 25 23 22 24 24 23 22 21 20 20 22 25 26 25 24 21 17 14 10 9 10 11
0 0 0 0 1 1 1 2 4 5 5 6 8 11 12 13 12 11 12 15 16 18 21 22 22 24 26 25 21 18 19 20 19 19 20 19 19 22 24 24 25 25 22 17 13 11 11 11 11
0 0 0 0 1 1 1 3 4 5 6 6 7 9 11 12 12 10 10 13 16 18 21 22 23 26 26 24 21 18 17 17 16 16 17 18 19 19 20 20 21 23 20 15 12 11 10 10 11
0 0 0 0 1 1 2 3 4 5 6 6 7 8 10 12 11 10 10 13 16 19 21 23 25 26 24 22 21 21 21 20 19 18 18 19 19 18 18 19 20 20 17 12 10 10 9 8 8
0 0 0 0 1 3 4 4 4 5 6 7 8 9 10 10 10 9 11 14 17 19 21 23 23 23 23 21 21 22 22 22 23 23 22 21 19 19 20 20 19 17 14 11 10 10 8 6 6
0 0 0 0 1 3 4 4 4 6 6 8 10 11 10 9 8 9 11 14 16 19 20 21 21 22 24 24 22 21 20 19 20 22 22 21 19 19 20 19 17 15 12 10 10 10 8 6 6
0 0 0 0 0 2 4 5 5 6 7 9 11 11 9 7 7 9 11 13 15 17 18 18 19 21 23 23 23 22 20 18 17 18 19 19 17 18 18 18 17 14 11 9 9 7 6 5 5
0 0 0 0 0 1 4 6 6 7 9 10 11 11 9 7 8 10 13 14 15 16 16 17 20 22 21 21 21 21 20 18 16 18 19 19 17 15 15 15 14 11 9 8 7 6 4 4 4
0 0 0 0 0 0 2 4 6 7 9 10 10 10 9 8 9 11 13 15 15 15 16 19 23 24 22 20 18 17 17 16 15 17 18 19 17 14 13 12 10 9 8 7 7 6 5 5 4
0 0 0 0 0 0 0 2 4 7 8 9 9 9 9 9 10 10 11 12 13 14 17 20 23 24 22 19 17 15 14 15 14 14 15 17 16 13 11 9 9 9 7 6 7 7 7 6 4
0 0 0 0 0 0 0 1 4 6 8 8 8 9 10 11 11 11 10 10 12 15 18 18 19 21 20 18 17 15 14 15 15 14 13 13 14 12 8 7 8 9 7 7 7 7 6 5 4
0 0 0 0 0 0 0 0 2 5 7 8 9 10 10 11 12 12 11 12 14 17 18 18 18 19 18 17 16 16 14 13 13 12 11 11 12 10 8 7 9 9 7 7 7 7 6 4 4
0 0 0 0 0 0 0 1 4 6 6 7 9 9 8 9 12 14 14 14 16 17 17 16 16 17 17 15 15 15 13 10 10 10 10 10 11 10 9 9 9 9 7 6 6 5 5 4 4
0 0 0 0 0 0 0 3 7 7 6 7 9 8 6 8 12 14 14 14 15 15 15 14 14 15 14 13 13 12 9 7 7 9 10 9 9 8 7 8 8 7 6 5 4 4 4 4 4
0 0 0 0 0 0 0 3 6 6 6 8 10 8 7 9 12 13 13 12 12 13 13 13 12 12 11 10 10 8 6 6 7 8 9 8 7 7 6 6 6 6 6 6 4 4 5 5 6
0 0 0 0 0 0 0 2 3 5 7 10 10 9 9 9 10 10 9 10 11 10 10 11 10 9 9 8 8 7 6 6 7 8 8 8 8 8 7 6 5 6 6 5 5 5 5 6 6
0 0 0 0 0 0 0 1 3 6 8 10 11 10 10 9 9 8 8 10 10 8 7 9 9 9 8 8 7 7 6 6 7 8 8 8 9 9 8 7 6 6 5 4 4 4 6 6 6

GEFSSGP_con_prob3kmehi_258.txt.gz
EHI
0 0 0 0 0 0 0 0 0 0 0 0 2 4 5 3 2 2 2 6 11 17 22 30 41 46 47 47 47 47 47 43 36 31 29 27 25 25 25 25 23 19 15 13 11 9 7 7 7
0 0 0 0 0 0 0 0 0 0 0 1 3 6 6 5 5 4 4 8 13 17 22 30 40 45 45 45 46 45 43 39 32 28 27 25 24 23 23 23 22 19 16 12 10 7 6 7 8
0 0 0 0 0 0 0 0 0 1 1 3 4 5 6 5 6 8 9 12 15 16 18 28 39 43 42 43 43 40 37 33 27 23 23 22 20 19 19 19 18 16 14 10 8 7 6 7 9
0 0 0 0 0 0 0 0 1 2 3 4 4 4 5 5 8 13 17 16 16 14 14 23 37 42 41 42 40 35 31 29 25 22 22 20 18 19 19 18 15 12 9 8 6 6 7 7 9
0 0 0 0 0 0 0 1 2 3 4 5 5 5 6 7 11 19 21 17 14 13 12 19 31 38 39 41 40 34 29 27 26 24 23 20 19 22 23 20 15 11 8 7 6 6 6 7 8
0 0 0 0 0 0 1 2 3 4 5 6 7 7 7 8 13 19 21 16 12 12 12 16 25 31 33 38 40 36 31 30 28 26 25 23 22 23 23 20 16 12 9 7 6 5 5 6 7
0 0 0 0 0 1 2 3 3 4 5 6 7 8 8 9 13 19 21 17 13 11 11 14 20 23 25 29 34 35 32 31 29 26 26 25 23 20 18 17 14 11 9 9 8 7 6 6 6
0 0 0 0 0 1 2 3 3 4 5 5 7 8 9 11 15 19 21 18 13 9 9 11 14 15 17 19 24 27 27 26 25 23 22 22 21 18 16 14 12 10 9 10 9 8 6 5 6
0 0 0 0 0 0 1 1 3 5 6 7 8 9 11 12 15 18 20 17 11 7 7 7 8 10 12 13 14 17 17 17 18 17 17 18 18 17 14 11 10 10 9 8 7 6 4 4 6
0 0 0 0 0 0 0 1 2 4 6 8 10 11 12 12 13 17 19 16 11 7 6 5 5 7 8 8 8 9 8 8 10 11 12 14 15 14 12 9 8 8 6 5 5 3 2 3 4
0 0 0 0 0 0 1 3 3 3 4 7 10 11 10 10 11 14 15 14 10 7 5 4 3 4 5 5 6 7 7 6 7 9 10 11 10 10 9 7 6 5 4 4 4 3 3 3 3
0 0 0 1 1 1 2 3 2 1 2 5 8 9 8 8 10 11 11 9 7 5 5 4 4 3 3 3 5 6 8 9 8 8 9 10 9 8 9 8 6 5 5 4 3 3 3 3 3
0 0 1 2 2 3 3 2 1 0 1 3 6 7 7 9 11 10 7 6 5 5 6 6 6 4 2 2 3 4 6 8 8 7 8 9 10 10 10 10 8 6 5 5 4 3 3 3 2
0 0 1 2 3 4 4 3 1 1 2 3 5 7 10 12 12 9 6 5 6 7 7 7 6 4 2 2 1 2 4 7 8 7 6 8 11 11 10 9 8 6 5 5 4 3 2 1 1
0 0 1 2 3 4 5 4 2 1 2 4 5 9 12 14 12 8 6 6 7 7 8 7 4 2 2 3 2 3 5 7 7 7 6 6 9 11 10 9 7 6 6 6 4 3 2 1 0
0 0 0 1 2 4 4 3 2 2 3 4 6 10 13 12 9 8 7 7 7 7 7 6 3 1 1 3 4 4 6 7 6 6 6 6 7 8 9 8 7 6 7 6 4 3 2 1 0
0 0 0 0 1 3 4 4 3 3 4 5 8 12 13 10 8 7 7 7 7 7 8 6 3 1 1 3 4 5 5 4 5 6 6 6 6 6 6 7 6 6 6 5 3 2 1 0 0
0 0 0 0 1 3 3 4 4 6 7 7 8 10 10 8 8 8 8 8 8 9 10 9 6 4 4 4 5 5 4 3 3 5 6 6 6 6 6 6 5 6 6 4 2 0 0 0 0
0 0 0 1 2 3 3 3 4 5 6 5 6 6 7 8 9 10 10 9 9 10 12 12 11 8 7 7 5 4 4 4 3 4 5 6 6 6 7 6 6 6 6 3 1 0 0 0 0
0 0 0 1 3 3 3 3 3 3 2 2 3 5 6 8 10 10 9 9 9 9 10 12 13 11 9 8 5 4 5 5 5 5 5 5 6 7 6 6 5 6 5 3 1 0 0 0 0
0 0 1 2 3 2 1 1 2 2 1 2 3 5 7 8 8 8 8 8 8 7 7 9 12 12 10 7 5 4 4 4 4 5 4 4 5 6 5 5 4 4 4 3 2 1 0 0 0
0 0 1 2 2 1 0 0 1 2 3 3 3 4 5 6 6 7 8 8 8 7 6 7 9 10 10 8 6 5 4 3 3 3 2 2 3 4 4 4 3 3 3 3 3 2 1 0 0
0 0 0 1 1 0 0 0 0 1 2 2 2 3 4 4 5 6 7 7 7 7 5 6 8 9 9 8 6 5 4 3 3 1 0 1 1 2 3 3 3 3 3 3 3 3 2 1 0
0 0 0 0 0 0 0 0 0 0 1 1 2 4 3 3 4 6 6 6 6 5 4 5 6 7 7 6 5 4 3 3 2 1 0 0 0 1 2 3 3 3 3 3 3 3 3 2 1
0 0 0 0 0 0 0 0 0 1 1 1 2 3 3 3 5 6 6 7 6 5 4 5 5 5 5 5 3 3 3 3 2 1 0 0 0 0 1 2 3 3 3 3 3 3 3 2 1
0 0 0 0 0 0 0 0 0 1 2 1 2 3 3 3 4 5 7 8 7 6 6 6 5 4 4 3 2 2 2 2 1 0 0 0 0 0 0 1 2 3 3 3 3 3 3 2 1
0 0 0 0 0 0 0 0 0 1 2 1 2 3 3 3 3 5 8 8 7 6 6 6 5 3 2 2 2 1 1 1 0 0 0 0 0 0 0 0 1 2 3 3 3 3 3 1 0
0 0 0 0 0 0 0 0 0 0 1 1 2 3 4 4 5 7 8 7 5 5 5 5 3 2 1 1 1 0 0 0 0 0 0 0 0 0 0 0 0 1 2 2 2 2 2 1 0
0 0 0 0 0 0 0 0 0 0 0 0 1 4 5 5 6 7 7 4 3 3 4 3 2 1 0 0 0 0 0 0 0 0 0 0 0 0 0 0 0 0 1 1 1 1 1 0 0
0 0 0 0 0 0 0 0 0 0 0 0 1 3 4 4 5 6 5 2 1 2 3 2 2 1 0 0 0 0 0 0 0 0 0 0 0 0 0 0 0 0 0 0 0 0 0 0 0

GEFSSGP_con_prob3kmehi_264.txt.gz
EHI
0 0 0 0 0 0 0 0 0 0 0 1 1 1 1 1 0 0 0 1 6 13 21 27 31 35 40 43 44 44 44 44 42 38 36 35 33 31 27 23 19 18 17 13 9 7 5 4 4
0 0 0 0 0 0 0 0 0 1 1 2 2 2 2 1 1 0 1 3 8 13 18 22 28 33 37 41 44 44 43 42 38 34 34 34 33 30 27 22 19 19 16 11 7 4 3 3 3
0 0 0 0 0 0 0 0 0 1 2 3 3 3 1 1 1 1 2 5 10 13 14 18 26 32 35 38 41 42 41 39 35 32 32 33 32 30 26 22 21 20 16 10 5 3 2 3 2
0 0 0 0 0 0 1 1 1 1 3 3 3 3 1 0 1 2 4 8 11 12 12 16 26 33 34 33 35 38 38 38 35 33 33 33 33 29 24 21 21 20 16 10 6 4 4 3 2
0 0 0 0 0 0 1 2 2 1 2 3 4 4 2 1 2 3 6 9 9 9 11 16 25 30 30 29 30 34 36 35 35 35 35 33 32 27 22 21 21 19 15 10 7 7 6 4 3
0 0 0 0 0 1 1 2 2 2 3 4 5 5 3 2 3 5 8 9 8 7 8 13 18 21 23 23 25 28 31 30 30 33 33 30 27 24 21 21 21 18 14 10 8 7 7 6 6
0 0 0 0 0 1 1 1 2 3 4 4 4 3 2 2 3 6 8 8 7 6 6 7 10 12 15 16 18 21 23 23 23 25 26 24 21 19 19 19 19 17 13 10 8 7 7 7 7
0 0 0 0 0 0 0 0 2 3 5 5 4 2 2 3 5 8 9 8 7 6 5 5 6 7 8 10 13 14 17 18 16 17 19 19 16 15 16 16 16 14 11 9 8 7 6 6 6
0 0 0 0 0 0 0 1 2 4 5 6 5 3 4 6 8 10 10 9 8 7 6 6 6 6 7 9 10 11 13 14 12 12 15 15 13 13 12 12 12 11 9 7 7 7 7 5 4
0 0 0 0 0 0 1 1 2 3 3 5 5 6 9 10 10 10 9 8 8 8 7 7 7 7 9 10 10 9 10 10 10 10 11 11 11 12 12 12 11 10 8 6 6 6 5 4 2
0 0 0 0 0 1 2 3 2 1 1 2 4 8 12 12 9 7 6 5 6 7 7 6 6 7 8 9 9 8 8 9 10 10 10 10 10 12 13 14 13 10 8 6 5 4 3 2 2
0 0 0 0 1 2 3 3 3 1 0 1 3 8 11 11 8 6 5 4 4 5 5 5 5 5 5 6 7 7 7 8 9 9 9 9 9 9 11 12 12 9 7 6 4 3 1 1 1
0 0 0 1 2 4 4 3 2 1 1 2 5 7 9 9 7 5 4 3 2 2 3 4 4 3 3 4 5 6 6 5 6 7 7 7 7 6 8 9 8 7 6 5 3 2 1 0 0
0 0 1 3 4 4 4 3 1 1 1 3 6 7 8 8 6 3 3 2 1 0 2 4 4 3 3 3 4 4 4 3 4 5 6 5 5 5 7 6 5 5 4 4 3 1 0 0 0
0 0 2 3 3 3 3 2 1 0 1 3 5 7 7 6 4 2 2 1 0 0 1 4 4 3 3 3 3 2 3 3 3 4 5 4 4 4 4 4 3 2 2 3 4 2 0 0 0
0 0 1 1 1 1 1 1 1 1 3 4 5 5 5 4 2 1 1 0 0 0 1 2 3 2 2 2 1 1 1 2 3 3 4 3 3 3 3 3 2 1 1 3 3 1 0 0 0
0 0 0 0 0 0 2 2 2 4 6 6 5 3 2 2 1 1 0 0 0 0 0 1 1 1 1 1 0 0 0 1 2 3 3 3 3 3 3 3 3 2 2 2 2 1 0 0 0
0 0 0 0 0 0 2 4 5 5 6 5 3 1 1 2 2 2 1 1 0 0 0 0 0 0 0 0 0 0 0 0 1 2 3 3 3 3 3 3 3 3 2 2 2 1 0 0 0
0 0 0 0 0 1 3 4 5 5 5 4 2 1 2 3 3 3 3 2 1 1 1 1 1 2 1 0 0 0 0 0 0 1 2 3 3 3 3 3 3 3 3 3 2 1 0 0 0
0 0 0 0 0 2 3 3 4 4 4 3 2 1 2 3 3 3 3 2 2 2 2 1 3 4 1 0 0 1 1 0 0 0 1 2 3 3 3 3 3 3 3 3 3 1 1 0 0
0 0 0 0 0 1 2 2 2 2 3 3 2 1 1 1 2 2 1 1 1 1 1 1 4 4 1 0 1 2 2 1 1 1 1 2 2 3 3 3 3 3 3 3 3 3 2 1 1
0 0 0 0 0 0 0 0 0 1 2 3 2 1 0 0 1 1 0 0 0 1 1 1 2 2 0 0 1 2 2 2 2 2 2 2 1 1 3 3 3 3 3 3 3 3 3 3 2
0 0 0 0 0 0 0 0 0 0 1 3 3 2 1 0 0 0 0 0 1 2 2 2 2 1 0 0 1 1 2 3 3 3 3 2 1 1 2 3 3 3 3 3 3 3 3 3 3
0 0 0 0 0 0 0 0 0 0 1 2 3 2 1 0 0 1 2 1 1 3 3 3 3 2 1 1 2 2 3 3 3 3 2 1 0 0 1 2 3 3 3 3 3 3 3 3 3
0 0 0 0 0 0 0 0 0 0 0 1 3 2 1 0 1 2 3 3 3 3 3 3 3 3 2 2 2 2 2 2 2 1 1 0 0 0 0 1 2 3 3 3 3 3 3 3 3
0 0 0 0 0 0 0 0 0 0 0 1 2 2 1 0 1 2 3 4 5 4 3 3 3 2 1 1 1 1 1 1 1 0 0 0 0 0 0 0 1 3 3 3 3 3 3 3 3
0 0 0 0 0 0 0 0 0 0 0 1 3 2 1 0 1 2 4 5 5 4 3 3 2 1 0 0 0 0 0 0 0 0 0 0 0 0 0 0 1 2 3 3 3 3 3 3 3
0 0 0 0 0 0 0 0 0 0 1 2 3 2 1 0 1 3 3 4 4 3 3 2 1 0 0 0 0 0 0 0 0 0 0 0 0 0 0 0 1 2 3 3 2 3 3 3 3
0 0 0 0 0 0 0 0 0 0 1 2 3 2 1 0 2 3 3 3 3 2 2 1 0 0 0 0 0 0 0 0 0 0 0 0 0 0 0 0 0 1 2 1 1 1 2 2 2
0 0 0 0 0 0 0 0 0 0 0 1 2 1 0 0 1 3 3 3 1 1 1 0 0 0 0 0 0 0 0 0 0 0 0 0 0 0 0 0 0 0 1 0 0 0 1 1 1

GEFSSGP_con_prob3kmehi_270.txt.gz
EHI
0 0 0 0 0 0 0 0 0 0 0 0 0 0 0 0 0 1 1 2 6 15 22 22 20 17 12 13 17 22 27 31 34 34 30 28 27 23 19 19 19 16 13 11 8 5 4 4 4
0 0 0 0 0 0 0 0 0 0 0 0 0 0 0 0 0 0 1 2 7 15 21 22 21 17 14 15 17 20 25 28 29 29 28 28 28 25 20 19 19 16 14 12 10 8 7 6 5
0 0 0 0 0 0 0 0 0 0 0 0 0 0 0 0 0 0 1 4 9 14 18 22 22 17 14 15 16 18 21 23 24 25 27 28 28 25 22 21 19 15 12 11 10 9 8 6 4
0 0 0 0 0 0 0 0 0 0 0 0 0 0 1 1 1 1 3 6 10 12 15 18 18 15 13 13 15 17 19 20 21 23 25 26 26 24 24 22 18 13 11 9 9 8 6 4 3
0 0 0 0 0 0 0 0 0 0 1 1 2 2 2 2 3 4 5 7 9 10 12 14 14 11 9 11 15 17 17 18 20 22 23 23 24 24 23 19 15 12 10 8 8 7 5 3 2
0 0 0 0 0 0 1 0 0 1 2 2 2 2 3 4 6 8 9 7 7 8 9 11 11 8 6 9 14 16 16 17 19 20 21 21 22 24 21 16 11 10 9 8 7 7 6 5 3
0 0 0 0 0 0 1 1 1 1 2 2 1 1 3 5 9 11 12 9 6 5 7 9 9 7 6 8 12 14 15 17 18 18 19 19 18 18 17 14 10 8 7 7 7 7 7 7 5
0 0 0 0 0 0 0 1 2 2 3 2 1 1 3 8 12 14 13 10 6 6 6 7 7 8 7 8 10 11 12 14 16 17 17 16 12 10 11 11 9 8 8 7 6 6 7 7 6
0 0 0 0 0 0 0 1 1 2 3 3 4 3 6 12 15 14 12 9 8 8 8 7 6 7 7 8 9 9 9 10 12 13 14 12 8 5 6 9 11 11 9 7 6 5 5 5 4
0 0 0 0 0 0 0 0 0 1 3 5 7 6 8 13 15 12 9 9 10 10 8 6 5 5 7 9 9 9 10 9 9 10 11 10 7 5 6 10 14 12 9 6 4 3 3 2 2
0 0 0 0 0 0 0 0 0 2 4 6 5 6 10 14 14 10 7 9 10 9 7 6 5 6 9 10 10 10 11 11 10 9 10 10 9 8 10 13 15 13 9 7 5 3 2 2 2
0 0 0 0 0 0 1 1 2 4 6 5 3 4 10 14 13 9 7 8 9 8 7 5 5 8 12 13 11 10 11 12 11 10 10 10 10 10 12 14 13 12 10 9 8 6 4 3 4
1 2 1 0 0 0 2 2 3 5 7 6 3 4 9 12 11 8 6 6 7 6 6 6 6 9 13 13 12 10 10 10 9 8 8 9 9 9 12 13 12 11 11 11 11 9 6 5 5
3 3 2 1 0 0 1 1 1 2 5 6 4 4 6 8 9 9 7 5 5 4 5 7 7 8 9 9 9 9 9 9 8 7 6 7 7 9 11 11 10 10 10 10 10 9 7 5 4
2 3 3 2 1 0 0 0 0 0 2 5 5 4 3 3 5 7 7 5 4 3 6 7 6 5 5 5 6 6 7 7 7 6 6 6 7 9 10 11 11 11 11 10 9 8 7 6 4
1 1 2 2 1 0 0 0 0 0 1 3 5 4 2 1 2 4 6 6 5 5 8 9 7 5 5 4 5 6 6 6 5 5 5 6 7 7 9 10 12 12 12 11 9 7 7 6 4
0 0 1 1 0 0 0 1 1 0 1 3 3 3 3 2 2 2 5 7 7 9 12 12 9 9 8 6 6 7 8 7 4 3 4 6 7 7 8 9 10 11 11 10 9 8 7 6 4
0 0 0 0 0 0 1 2 3 2 1 3 2 2 3 3 3 3 6 8 9 10 12 12 12 13 13 11 9 8 8 7 6 4 5 8 9 9 9 9 9 10 10 10 9 8 6 5 5
0 0 0 0 1 1 1 3 3 3 3 3 3 2 2 3 3 5 7 8 9 10 11 12 14 16 16 15 14 12 11 10 9 6 6 8 8 8 9 9 9 8 9 9 8 7 6 5 5
0 0 0 0 0 0 1 1 3 3 3 3 3 2 2 3 4 6 8 8 9 11 11 11 13 16 16 16 17 16 15 14 11 8 7 6 5 5 7 8 8 7 8 8 7 7 7 7 7
0 0 0 0 0 0 0 1 2 3 3 3 3 3 3 3 3 5 7 8 10 11 11 10 10 12 13 13 14 14 14 12 9 8 6 4 3 4 5 6 7 6 6 7 7 7 7 7 8
0 0 0 0 0 0 0 0 1 3 3 3 4 5 4 3 2 2 5 7 9 9 10 10 9 9 10 10 10 10 9 7 6 7 7 6 4 4 5 6 6 6 6 6 6 6 6 7 7
0 0 0 0 0 0 0 0 1 2 3 4 5 6 5 3 1 1 4 7 8 8 9 10 10 9 9 10 10 8 7 5 6 8 9 8 6 5 4 4 5 6 6 5 5 6 6 6 6
0 0 0 0 0 0 0 0 0 1 3 3 4 6 6 4 1 2 5 8 9 8 8 9 9 8 8 9 9 8 8 7 7 9 10 8 6 4 3 3 4 6 7 6 5 6 6 5 5
0 0 0 0 0 0 0 0 0 1 2 2 3 5 6 4 2 2 6 10 10 8 7 7 7 6 6 6 7 8 8 7 6 7 7 6 4 3 3 3 3 5 7 8 7 6 6 5 5
0 0 0 0 0 0 0 0 0 1 2 2 3 4 6 5 2 2 5 9 9 7 7 7 6 5 5 5 6 6 6 5 5 5 4 4 3 2 2 3 3 4 6 7 7 6 6 6 6
0 0 0 0 0 0 1 1 1 2 3 2 3 4 5 4 2 1 4 7 7 5 5 5 5 5 6 6 5 4 5 5 4 4 3 2 2 1 1 1 2 3 5 6 6 6 6 5 5
0 0 0 0 0 0 1 1 2 3 3 2 2 3 4 3 2 2 3 6 6 4 3 3 3 4 5 4 3 2 3 4 3 2 1 1 1 2 1 0 1 1 3 4 4 3 3 3 3
0 0 0 0 0 0 0 1 2 3 2 1 1 2 3 3 2 1 3 4 5 4 3 2 2 1 2 2 1 1 1 1 1 0 0 1 2 2 1 0 0 0 1 2 2 1 1 1 2
0 0 0 0 0 0 0 1 2 3 2 1 1 2 3 3 1 1 2 4 4 5 4 2 1 0 0 1 1 1 0 0 0 0 1 1 1 1 0 0 0 0 0 1 1 0 0 0 1